Location: *
(46.3500°N, 10.9000°E)
Time: 23:45:50
(UTC+00:00)

Vanguard 2 - Pass Details

Date: 23 April 2021
Orbit: 552 x 2938 km, 32.9° (Epoch: 12 May)

Event Time Altitude Azimuth Distance (km) Brightness Sun altitude
Rises 15:22:12 0° 269° (W) 6,044 13.3 28.5°
Reaches altitude 10° 15:27:28 10° 260° (W) 4,634 13.3 27.6°
Maximum altitude 15:36:38 26° 211° (SSW) 2,729 11.1 26.0°
Drops below altitude 10° 15:42:59 10° 158° (SSE) 3,113 10.6 25.0°
Sets 15:45:46 0° 145° (SE) 3,774 10.8 24.5°
